MIDAS 4 DEB, 195

Orbit data source: Space-Track

MIDAS 4 DEB, 195 is space debris in LEO originally from a launch on Sat, 21 Oct 1961 UTC launched from the Air Force Western Test Range (AFWTR). Debris objects in space refer to the collection of defunct objects orbiting the Earth. Examples of debris include non-operational satellites, rocket bodies, and fragments generated from explosions, collisions, or faulty payload assembly.

Loading next visibility...
Identifier
195, 1961-028D
Orbit
LEO
Country
Flag of USUS
Related business
Manufacturer
Unknown
Mission
Spacecraft
Bus & Motor
Unknown
Mass
~10 kg wet, ~10 kg dry
Launch date (UTC)
1961-10-21 (64 years ago)
Launch vehicle
Unknown
Launch site
Air Force Western Test Range (AFWTR)
Object type
Payload
Rocket body
Debris
Shape & HBR
Unknown shape, 1.1 m
Radar Cross Section
Medium (>0.1 m² and <1 m²)

Expand to show TLE details & history
Last TLE update: 13 hours ago

TLE from 13 hours ago
0 MIDAS 4 DEB
1 00195U 61028D   25291.61799609 -.00000011  00000-0 -32179-2 0  9996
2 00195  95.8398 153.8147 0127609 309.1452  49.8117  8.65621777 22123
Epoch: 2025-10-18T14:49Z
TLE epoch observation values (Epoch: 2025-10-18T14:49:54.862Z)
Latitude
0.00001°
Longitude
-96.01032°
Altitude
3,562.047 km
Speed
6.359 km/s
True Right ascension
10h 15m 15s
True Declination
0° 00' 00"
Sunlit
Object was in daylight at epoch
Visualization orbit readout
Latitude
Unknown
Longitude
Unknown
Altitude
Unknown
Speed
Unknown
Apparent Right ascension
Unknown
Apparent Declination
Unknown
Sunlit
N/A
Visualization observer readout
Local Sidereal Time
23:07:12
Azimuth
Unknown
Elevation
Unknown
Doppler factor
Unknown
Orbital elements
Apogee altitude
3,767.156 km
Perigee altitude
3,511.492 km
Semi-major axis
10,017.461 km
Eccentricity
0.01276
Inclination
95.8398°
RAAN
153.8147°
Arg. of periapsis
309.1452°
True anomaly
50.94033°
Mean anomaly
49.8117°
Eccentric anomaly
50.37485°
Mean motion
2.16474 °/min
Orbital period
166.3 mins
BSTAR
-0.0032179
Loading maneuver chart data...
Computing Atmospheric mass density...
Loading historical data...
Loading historical data...
Loading historical data...
Loading historical data...
Loading historical data...
Loading historical data...
Loading historical data...

Documentation

Showing up to 5 results
|